Lid_Strength_Index
6 6 6 6 5 5 6 7 8 8 8 8 8 7 6 5 4 5 7 6 8 10 9 8 7 9 8 9 10 9 10 9 10 12 13 13 14 13 14 12 14 14 15 16 15 17 19 8 9 13 10 8 8 8
6 6 6 6 5 5 6 7 8 8 8 8 8 7 6 5 4 4 8 5 5 9 9 6 6 6 6 7 8 8 8 9 8 10 11 11 13 12 13 16 11 15 13 14 14 14 9 8 9 7 7 8 8 7
7 6 6 6 6 6 6 8 8 8 8 8 8 7 6 5 5 5 7 7 7 9 9 8 8 5 3 4 4 8 7 6 7 5 8 10 13 11 15 14 13 10 8 12 12 10 11 9 7 7 7 8 7 6
7 6 6 5 6 7 7 8 8 9 8 8 8 7 6 5 5 5 7 7 8 9 13 10 5 6 4 4 3 3 5 4 4 5 8 10 12 8 11 10 11 10 9 11 11 9 9 8 7 7 7 6 6 5
7 6 6 6 7 8 8 8 8 8 9 8 8 7 6 5 5 6 7 7 6 9 12 11 7 5 4 2 3 3 5 5 6 8 9 10 8 9 9 9 11 9 10 12 13 8 10 9 7 7 7 6 6 6
7 6 6 6 7 8 8 9 8 9 9 8 8 7 6 5 5 7 8 5 4 6 10 13 7 6 5 3 3 4 4 5 6 8 8 8 6 8 12 13 9 7 6 6 8 7 8 7 6 6 6 6 6 6
6 6 6 7 8 8 9 8 8 9 8 8 8 7 6 5 6 9 9 6 4 5 9 12 10 5 3 3 4 5 4 5 6 7 8 8 8 7 10 13 8 7 6 5 6 7 9 8 8 6 6 7 6 6
6 6 6 7 8 9 9 8 9 8 8 8 7 6 5 5 5 7 5 4 4 6 7 11 10 7 3 7 8 5 7 6 7 8 7 9 8 8 12 9 7 6 6 6 7 8 7 7 7 7 7 7 8 8
6 6 7 8 8 9 9 9 8 8 8 7 7 5 6 6 6 5 4 3 3 6 10 9 11 12 4 6 6 7 6 10 6 9 9 8 10 12 9 8 7 6 7 7 7 8 8 7 9 8 8 8 9 8
6 6 7 8 9 9 9 9 8 8 8 7 6 7 8 6 3 4 6 7 8 8 8 10 8 10 6 7 8 8 8 10 12 10 7 10 11 7 7 6 5 5 6 7 9 10 9 9 9 9 9 8 9 9
6 7 8 8 9 9 9 9 8 8 7 9 11 10 7 4 7 9 9 10 10 11 9 8 7 9 5 10 10 8 10 9 13 11 11 12 12 8 6 6 5 5 6 7 8 8 9 9 9 9 10 9 10 10
7 7 8 8 9 9 9 9 9 9 10 10 10 8 7 7 8 10 10 8 9 11 7 8 7 7 6 5 8 8 11 10 14 8 11 14 10 7 6 5 5 5 6 7 8 8 8 9 9 9 9 9 10 9
7 8 8 9 9 9 9 9 8 9 8 8 9 9 9 10 13 12 13 11 10 7 6 6 8 7 6 6 8 9 12 13 8 12 13 11 8 6 5 5 5 5 5 7 8 8 8 8 8 9 9 9 9 10
7 8 8 9 9 9 9 9 9 9 10 9 10 15 13 12 11 10 11 11 9 8 8 7 7 7 7 9 9 12 10 10 14 15 14 10 7 6 5 4 5 5 5 6 7 8 8 8 9 9 8 8 9 10
8 8 9 9 9 9 8 9 8 8 9 10 10 16 12 10 10 9 9 9 8 8 8 8 7 6 8 10 9 10 12 14 13 13 10 8 6 6 5 5 5 5 4 5 6 7 8 8 9 9 9 9 10 10
9 9 10 9 9 8 9 8 8 8 7 10 10 12 10 11 11 10 10 10 8 8 7 7 7 9 10 10 12 13 13 14 13 13 9 7 6 6 5 5 5 4 4 5 5 6 7 8 9 9 9 9 8 9
9 10 7 8 9 8 8 9 8 9 10 11 11 9 9 10 11 10 9 9 7 8 10 7 10 12 9 12 12 11 14 13 12 9 8 5 5 5 5 4 4 4 4 4 5 5 6 6 7 8 10 9 9 8
10 8 8 8 9 8 8 9 9 10 12 10 11 10 9 9 9 9 8 6 7 8 7 8 7 10 12 13 13 11 9 9 8 8 8 6 5 4 4 4 4 4 4 4 4 4 5 6 7 8 9 9 9 9
9 8 8 9 9 10 10 10 8 11 10 9 9 8 8 8 7 6 6 5 4 4 5 6 9 11 11 9 10 9 8 9 9 8 7 6 6 5 4 4 3 4 4 4 4 4 4 4 6 6 7 8 10 10
9 9 9 9 10 10 11 10 7 10 11 9 9 9 8 8 7 7 6 6 5 6 8 9 11 9 9 9 7 7 7 9 9 10 10 8 7 7 5 4 4 3 4 3 3 5 4 5 5 6 7 7 8 10
9 9 8 9 10 9 9 9 10 9 9 10 8 8 8 7 7 7 7 6 8 9 9 8 7 8 6 6 5 6 8 8 10 10 10 11 9 8 6 5 3 4 4 4 4 4 4 4 6 6 6 6 7 7
8 8 8 8 10 9 10 8 9 8 9 9 9 8 9 9 8 7 6 7 9 8 7 7 7 6 6 6 7 7 7 8 8 9 9 9 10 9 7 6 5 4 4 4 4 4 3 3 3 4 5 6 7 7
9 8 9 9 11 12 13 8 11 9 12 10 9 10 9 8 6 4 7 6 7 5 5 6 6 5 5 5 6 6 7 7 8 9 9 9 8 7 8 7 6 7 7 6 5 3 3 5 3 4 5 6 7 7
9 10 11 12 12 14 10 11 9 10 10 10 10 11 9 7 5 7 9 8 6 6 6 6 6 7 6 6 7 7 7 7 7 8 8 9 10 10 9 8 7 7 9 8 8 6 5 3 4 3 4 6 6 7
14 14 13 14 11 12 13 12 11 11 12 11 11 9 7 6 9 8 9 7 7 7 7 7 7 7 7 7 7 7 6 7 7 8 7 8 9 9 10 10 9 9 9 10 10 8 7 6 5 3 3 4 6 6
17 14 14 13 12 12 12 13 12 12 11 11 10 7 6 8 9 10 8 7 7 7 6 6 7 7 7 6 7 7 7 7 7 8 7 7 8 9 11 11 11 10 8 9 9 9 8 7 6 3 3 4 9 6
16 15 12 10 10 10 11 10 10 11 11 11 9 8 9 12 11 8 6 5 6 5 5 5 5 6 6 7 7 7 7 7 8 8 6 6 6 7 9 10 10 9 8 8 8 9 9 8 7 5 3 3 4 5
14 12 14 12 10 9 11 11 11 11 10 8 7 9 10 10 9 6 6 5 4 4 4 4 4 5 5 5 6 7 8 8 8 8 8 8 8 8 8 8 8 9 8 8 8 9 8 8 7 7 6 3 3 3
13 11 10 12 11 10 10 10 10 8 7 7 8 8 8 6 5 5 5 4 4 5 5 6 5 4 5 5 5 6 6 8 10 12 13 12 11 10 9 8 8 8 8 9 10 10 9 9 8 7 6 3 2 2
13 10 10 11 11 12 9 7 7 6 6 6 6 6 6 5 4 3 4 5 5 6 6 5 6 6 7 7 7 7 6 7 8 10 13 12 11 9 9 8 8 9 9 9 10 10 10 9 7 5 5 5 5 6
10 10 10 10 10 8 7 5 4 5 5 6 5 6 7 6 5 5 5 5 6 6 6 7 6 6 7 7 7 8 9 7 8 9 9 10 10 9 9 8 8 8 9 9 10 11 11 11 10 9 8 7 7 7
10 10 9 10 9 6 5 5 5 6 5 6 7 6 6 7 8 7 6 6 7 8 9 7 7 7 6 6 6 6 8 7 8 9 9 9 9 9 9 9 8 9 10 10 11 11 12 12 12 12 12 11 10 9
8 7 7 7 8 7 6 7 7 7 6 7 6 6 6 7 9 7 5 5 6 6 7 6 6 6 6 6 7 7 7 6 8 9 9 10 11 11 10 10 9 9 10 11 11 12 13 13 14 14 13 13 13 13